Location: Morgantown
(40.9734°N, 80.6323°W)
Time: 21:14:05
(UTC+00:00)

NOAA 18 - Visible Passes

Search period start: 19 September 2021 00:00
Search period end: 29 September 2021 00:00
Orbit: 840 x 861 km, 99.0° (Epoch: 19 September)

Date Brightness Start Highest point End Pass type
(mag) Time Alt. Az. Time Alt. Az. Time Alt. Az.
19 Sep 6.5 02:13:16 30° NNE 02:13:16 30° NNE 02:16:16 10° N visible
19 Sep 7.8 03:55:16 14° NW 03:55:16 14° NW 03:56:20 10° NW visible
20 Sep 6.6 02:01:18 26° NNE 02:01:18 26° NNE 02:04:10 10° N visible
20 Sep 7.7 03:43:18 17° NW 03:43:18 17° NW 03:44:43 10° NW visible
21 Sep 6.7 01:49:20 23° NNE 01:49:20 23° NNE 01:52:00 10° N visible
21 Sep 7.5 03:31:20 19° NW 03:31:20 19° NW 03:33:01 10° NNW visible
22 Sep 6.9 01:37:22 19° NE 01:37:22 19° NE 01:39:45 10° NNE visible
22 Sep 7.4 03:19:22 21° NNW 03:19:22 21° NNW 03:21:14 10° NNW visible
23 Sep 7.0 01:25:24 16° NE 01:25:24 16° NE 01:27:24 10° NNE visible
23 Sep 7.2 03:07:24 23° NNW 03:07:24 23° NNW 03:09:23 10° NNW visible
24 Sep 7.2 01:13:27 13° NE 01:13:27 13° NE 01:14:51 10° NNE visible
24 Sep 7.1 02:55:27 24° NNW 02:55:27 24° NNW 02:57:30 10° NNW visible
25 Sep 7.3 01:01:29 11° NE 01:01:29 11° NE 01:01:53 10° NE visible
25 Sep 7.1 02:43:29 24° N 02:43:29 24° N 02:45:33 10° N visible
26 Sep 7.0 02:31:31 23° N 02:31:31 23° N 02:33:34 10° N visible
27 Sep 7.0 02:19:33 22° N 02:19:33 22° N 02:21:31 10° N visible
28 Sep 7.1 02:07:35 20° NNE 02:07:35 20° NNE 02:09:26 10° N visible
28 Sep 8.1 03:49:35 11° NW 03:49:35 11° NW 03:49:48 10° NW visible
